Location: Mahannah Oil Field
(37.4664°N, 96.6003°W)
Time: 18:41:40
(UTC+00:00)

Transit 2A Rocket - Pass Details

Date: 22 January 2021
Orbit: 594 x 908 km, 66.7° (Epoch: 06 March)

Event Time Altitude Azimuth Distance (km) Brightness Sun altitude
Rises 04:25:42 0° 329° (NNW) 2,885 - -56.2°
Reaches altitude 10° 04:28:00 10° 328° (NNW) 1,954 - -56.6°
Maximum altitude 04:32:19 71° 245° (WSW) 629 - -57.4°
Drops below altitude 10° 04:36:35 10° 161° (SSE) 1,925 - -58.2°
Sets 04:38:50 0° 159° (SSE) 2,838 - -58.6°
